• In Latvia
  • List of Countries
  • For 7 days
  • Water Temperature
  • Satellite Maps
  • Weather Map
  • Weather Widgets
  • user-avatar
    Login

    Hourly Weather Innsbruck

    Today, 23 January, Tuesday

    Time Temperature Precipitation Wind Pressure Humidity
    00:00 -4°C° 0.6 mm 2 mps 592 mmHg 97%
    01:00 -4°C° 0 mm 2 mps 593 mmHg 97%
    02:00 -4°C° 0.5 mm 2 mps 593 mmHg 97%
    03:00 -5°C° 0.5 mm 2 mps 594 mmHg 96%
    04:00 -5°C° 0.5 mm 2 mps 594 mmHg 96%
    05:00 -5°C° 0.5 mm 2 mps 594 mmHg 96%
    06:00 -5°C° 0.5 mm 2 mps 595 mmHg 95%
    07:00 -7°C° 0 mm 3 mps 595 mmHg 95%
    08:00 -6°C° 0.2 mm 2 mps 595 mmHg 95%
    09:00 -5°C° 0.2 mm 2 mps 596 mmHg 95%
    10:00 -5°C° 0.2 mm 2 mps 597 mmHg 94%
    11:00 -5°C° 0 mm 2 mps 597 mmHg 94%
    12:00 -4°C° 0 mm 2 mps 597 mmHg 94%
    13:00 -4°C° 0 mm 2 mps 598 mmHg 94%
    14:00 -2°C° 0 mm 1 mps 598 mmHg 93%
    15:00 -2°C° 0 mm 1 mps 598 mmHg 93%
    16:00 -3°C° 0 mm 1 mps 598 mmHg 93%
    17:00 -4°C° 0 mm 1 mps 597 mmHg 87%
    18:00 -7°C° 0 mm 1 mps 597 mmHg 82%
    19:00 -9°C° 0 mm 2 mps 597 mmHg 76%
    20:00 -8°C° 0 mm 1 mps 597 mmHg 71%
    21:00 -8°C° 0 mm 1 mps 597 mmHg 66%
    22:00 -8°C° 0 mm 1 mps 597 mmHg 61%
    23:00 -8°C° 0 mm 1 mps 597 mmHg 60%

    Tomorrow, 24 January, Wednesday

    Time Temperature Precipitation Wind Pressure Humidity
    00:00 -8°C° 0 mm 1 mps 597 mmHg 59%
    01:00 -8°C° 0 mm 1 mps 598 mmHg 59%
    02:00 -8°C° 0 mm 1 mps 597 mmHg 58%
    03:00 -9°C° 0 mm 2 mps 597 mmHg 58%
    04:00 -9°C° 0 mm 2 mps 597 mmHg 58%
    05:00 -9°C° 0 mm 2 mps 597 mmHg 57%
    06:00 -9°C° 0 mm 2 mps 597 mmHg 57%
    07:00 -8°C° 0 mm 1 mps 597 mmHg 56%
    08:00 -7°C° 0 mm 2 mps 598 mmHg 60%
    09:00 -6°C° 0 mm 2 mps 599 mmHg 63%
    10:00 -4°C° 0 mm 2 mps 599 mmHg 67%
    11:00 -3°C° 0 mm 2 mps 599 mmHg 73%
    12:00 -2°C° 0 mm 2 mps 599 mmHg 80%
    13:00 -1°C° 0 mm 2 mps 599 mmHg 86%
    14:00 -2°C° 0 mm 2 mps 599 mmHg 85%
    15:00 -2°C° 0 mm 2 mps 599 mmHg 85%
    16:00 -3°C° 0 mm 2 mps 598 mmHg 84%
    17:00 -4°C° 0 mm 2 mps 598 mmHg 80%
    18:00 -5°C° 0 mm 2 mps 597 mmHg 77%
    19:00 -8°C° 0 mm 3 mps 597 mmHg 74%
    20:00 -8°C° 0 mm 3 mps 597 mmHg 73%
    21:00 -8°C° 0 mm 3 mps 597 mmHg 73%
    22:00 -8°C° 0 mm 3 mps 596 mmHg 72%
    23:00 -8°C° 0 mm 3 mps 596 mmHg 71%

    Day after tomorrow, 25 January, Thursday

    Time Temperature Precipitation Wind Pressure Humidity
    00:00 -8°C° 0 mm 3 mps 596 mmHg 71%
    01:00 -8°C° 0 mm 3 mps 596 mmHg 70%
    02:00 -8°C° 0 mm 3 mps 596 mmHg 70%
    03:00 -8°C° 0 mm 2 mps 595 mmHg 70%
    04:00 -8°C° 0 mm 2 mps 595 mmHg 70%
    05:00 -7°C° 0 mm 2 mps 595 mmHg 71%
    06:00 -7°C° 0 mm 2 mps 595 mmHg 72%
    07:00 -7°C° 0 mm 2 mps 595 mmHg 73%
    08:00 -6°C° 0 mm 2 mps 595 mmHg 75%
    09:00 -5°C° 0 mm 2 mps 595 mmHg 77%
    10:00 -5°C° 0 mm 3 mps 596 mmHg 80%
    11:00 -4°C° 0 mm 3 mps 595 mmHg 83%
    12:00 -4°C° 0 mm 3 mps 595 mmHg 86%
    13:00 -2°C° 0 mm 3 mps 594 mmHg 90%
    14:00 -4°C° 0 mm 3 mps 594 mmHg 91%
    15:00 -4°C° 0 mm 3 mps 594 mmHg 91%
    16:00 -4°C° 0 mm 3 mps 593 mmHg 92%
    17:00 -5°C° 0 mm 3 mps 593 mmHg 91%
    18:00 -6°C° 0 mm 3 mps 593 mmHg 90%
    19:00 -6°C° 0 mm 3 mps 592 mmHg 90%
    20:00 -7°C° 0 mm 3 mps 592 mmHg 89%
    21:00 -7°C° 0 mm 3 mps 592 mmHg 89%
    22:00 -7°C° 0 mm 3 mps 592 mmHg 89%
    23:00 -7°C° 0 mm 3 mps 592 mmHg 89%

    26 January, Friday

    Time Temperature Precipitation Wind Pressure Humidity
    00:00 -7°C° 0 mm 3 mps 592 mmHg 89%
    01:00 -7°C° 0 mm 3 mps 591 mmHg 90%
    02:00 -7°C° 0 mm 3 mps 591 mmHg 90%
    03:00 -7°C° 0 mm 3 mps 591 mmHg 90%
    04:00 -7°C° 0 mm 3 mps 590 mmHg 90%
    05:00 -7°C° 0 mm 3 mps 590 mmHg 90%
    06:00 -7°C° 0 mm 3 mps 590 mmHg 90%
    07:00 -7°C° 0 mm 3 mps 590 mmHg 90%
    08:00 -6°C° 0.1 mm 2 mps 591 mmHg 91%
    09:00 -5°C° 0.1 mm 2 mps 591 mmHg 92%
    10:00 -4°C° 0.1 mm 2 mps 592 mmHg 93%
    11:00 -4°C° 0.1 mm 2 mps 592 mmHg 94%
    12:00 -4°C° 0.1 mm 2 mps 592 mmHg 96%
    13:00 -3°C° 0.1 mm 2 mps 593 mmHg 97%
    14:00 -4°C° 0.5 mm 2 mps 593 mmHg 97%
    15:00 -4°C° 0.5 mm 2 mps 593 mmHg 96%
    16:00 -4°C° 0.5 mm 2 mps 593 mmHg 96%
    17:00 -3°C° 1.1 mm 1 mps 593 mmHg 96%
    18:00 -3°C° 1.1 mm 1 mps 593 mmHg 97%
    19:00 -4°C° 1.1 mm 1 mps 593 mmHg 97%
    20:00 -4°C° 1.3 mm 1 mps 593 mmHg 97%
    21:00 -4°C° 1.3 mm 1 mps 594 mmHg 97%
    22:00 -6°C° 1.3 mm 1 mps 594 mmHg 97%
    23:00 -6°C° 1.1 mm 1 mps 594 mmHg 97%

    27 January, Saturday

    Time Temperature Precipitation Wind Pressure Humidity
    00:00 -6°C° 1.1 mm 1 mps 594 mmHg 97%
    01:00 -6°C° 1.1 mm 1 mps 594 mmHg 97%
    02:00 -7°C° 1 mm 1 mps 594 mmHg 97%
    03:00 -7°C° 1 mm 1 mps 594 mmHg 97%
    04:00 -7°C° 1 mm 1 mps 594 mmHg 96%
    05:00 -7°C° 1.2 mm 1 mps 594 mmHg 96%
    06:00 -7°C° 1.2 mm 1 mps 594 mmHg 96%
    07:00 -7°C° 1.2 mm 1 mps 595 mmHg 96%
    08:00 -7°C° 0.9 mm 1 mps 595 mmHg 96%
    09:00 -7°C° 0.9 mm 1 mps 596 mmHg 95%
    10:00 -6°C° 0.9 mm 1 mps 596 mmHg 95%
    11:00 -6°C° 0.5 mm 1 mps 597 mmHg 94%
    12:00 -4°C° 0.5 mm 1 mps 597 mmHg 93%
    13:00 -4°C° 0.5 mm 1 mps 598 mmHg 92%
    14:00 -3°C° 0.2 mm 1 mps 598 mmHg 93%
    15:00 -3°C° 0.2 mm 1 mps 598 mmHg 93%
    16:00 -3°C° 0.2 mm 1 mps 598 mmHg 93%
    17:00 -4°C° 0 mm 1 mps 598 mmHg 94%
    18:00 -6°C° 0 mm 1 mps 598 mmHg 94%
    19:00 -7°C° 0 mm 1 mps 598 mmHg 94%
    20:00 -7°C° 0 mm 1 mps 598 mmHg 93%
    21:00 -8°C° 0 mm 1 mps 599 mmHg 91%
    22:00 -9°C° 0 mm 2 mps 599 mmHg 90%
    23:00 -9°C° 0 mm 2 mps 599 mmHg 89%

    28 January, Sunday

    Time Temperature Precipitation Wind Pressure Humidity
    00:00 -9°C° 0 mm 2 mps 599 mmHg 88%
    01:00 -9°C° 0 mm 2 mps 599 mmHg 87%
    02:00 -9°C° 0 mm 2 mps 599 mmHg 87%
    03:00 -9°C° 0 mm 2 mps 599 mmHg 86%
    04:00 -8°C° 0 mm 1 mps 599 mmHg 85%
    05:00 -8°C° 0 mm 1 mps 599 mmHg 85%
    06:00 -8°C° 0 mm 1 mps 600 mmHg 84%
    07:00 -8°C° 0 mm 1 mps 600 mmHg 84%
    08:00 -7°C° 0 mm 1 mps 601 mmHg 84%
    09:00 -4°C° 0 mm 1 mps 602 mmHg 83%
    10:00 -2°C° 0 mm 1 mps 603 mmHg 83%
    11:00 -1°C° 0 mm 1 mps 603 mmHg 87%
    12:00 -1°C° 0 mm 1 mps 603 mmHg 91%
    13:00 0°C° 0 mm 1 mps 603 mmHg 95%
    14:00 0°C° 0 mm 1 mps 603 mmHg 94%
    15:00 -1°C° 0 mm 1 mps 603 mmHg 94%
    16:00 -1°C° 0 mm 1 mps 602 mmHg 93%
    17:00 -2°C° 0 mm 1 mps 602 mmHg 88%
    18:00 -3°C° 0 mm 1 mps 602 mmHg 83%
    19:00 -4°C° 0 mm 1 mps 602 mmHg 77%
    20:00 -4°C° 0 mm 1 mps 602 mmHg 75%
    21:00 -4°C° 0 mm 1 mps 602 mmHg 73%
    22:00 -4°C° 0 mm 1 mps 603 mmHg 71%
    23:00 -3°C° 0 mm 1 mps 603 mmHg 74%
    Show more